Погода в Степанищеве

Россия / Орловская область     52°28′32″N   36°54′25″E
темп.,
°C
ветер,
м/с
пор.,
м/с
влажн.,
%
обл.,
%
осадки,
мм/ч
давл.,
гПа
погр.,
м
24 июля, сб
сб2400:00+17зсз377562 0.1 1011166
03:00+15сз348479 0.1 101271
06:00+15зсз24815 0.0 1012124
09:00+20ссз45650 0.0 1012704
12:00+22ссз684356 0.0 10132107
15:00+23ссз77395 0.0 10142242
18:00+21с454917 0.0 10151493
21:00+16св336514 0.0 101743
25 июля, вс
вс2500:00+14в11601 0.0 101811
03:00+13всв116344 0.0 101910
06:00+14ссв116521 0.0 102015
09:00+19с11515 0.0 1021513
12:00+23с23400 0.0 10211748
15:00+24с34379 0.0 10212206
18:00+23ссв33418 0.0 10211843
21:00+18св345769 0.0 102373
26 июля, пн
пн2600:00+16всв355812 0.0 102480
03:00+17в345311 0.0 102496
06:00+15всв226548 0.0 102532
09:00+20св224926 0.0 1025420
12:00+24св343515 0.0 10251604
15:00+25ссв44340 0.0 10242027
18:00+24ссв344114 0.0 10231674
21:00+19ссв22501 0.0 102411
27 июля, вт
вт2700:00+17ссв23530 0.0 102420
03:00+16в22572 0.0 102410
06:00+16вюв11590 0.0 102411
09:00+22в11452 0.0 1024400
12:00+26юв22340 0.0 10232152
15:00+27юз113227 0.0 10222481
18:00+27сз113533 0.0 10212346
21:00+21ссз225326 0.0 102221
28 июля, ср
ср2800:00+18св22570 0.0 102221
03:00+18в22550 0.0 102111
06:00+17ююз22610 0.0 102117
09:00+24ююз23432 0.0 1020400
12:00+27ю44342 0.0 10182147
15:00+28ююз453249 0.0 10162419
18:00+27ююз3640100 0.0 1015406
21:00+22ююв495198 0.0 1014187